Wind_Speed
42 42 40 35 31 30 29 25 20 20 22 21 19 15 14 14 14 15 16 17 14 12
41 40 39 38 32 30 27 26 22 22 23 23 22 20 18 17 17 18 18 18 18 16
41 44 43 40 36 31 28 25 24 22 24 24 24 23 22 21 20 20 20 20 19 19
38 39 42 42 39 34 29 26 28 26 23 24 25 25 26 25 23 23 23 22 23 22
39 40 40 41 41 36 32 28 30 27 25 26 25 25 26 28 27 27 27 26 26 26
35 36 38 40 41 38 34 32 31 32 32 30 27 27 26 26 28 30 30 29 29 29
37 37 38 40 40 39 36 35 35 34 34 33 30 28 28 28 29 30 31 32 33 33
37 37 40 39 40 40 39 38 37 37 37 36 35 35 32 31 33 32 32 33 34 35
35 37 39 40 40 39 40 39 38 40 40 41 41 40 40 39 36 35 36 38 38 37
35 36 37 39 37 39 39 37 38 40 39 40 43 44 42 41 42 40 40 41 40 39
34 34 33 32 35 35 36 36 36 38 39 39 41 42 43 43 42 42 43 44 43 41
36 34 32 33 34 34 32 32 36 37 37 39 39 38 39 38 40 42 44 39 40 40
34 35 36 36 36 35 32 31 28 32 35 38 38 37 36 36 37 32 35 35 37 38
37 37 34 31 31 29 29 26 26 28 31 33 33 33 32 32 36 34 30 28 27 27
Wind_Direction
220 224 228 231 231 227 224 225 227 233 235 236 239 239 235 238 242 244 247 252 252 257
218 219 224 231 231 228 224 226 231 237 238 238 238 239 240 242 245 246 249 252 250 256
215 222 226 231 230 227 226 225 231 238 240 241 242 241 242 244 247 250 252 252 253 256
211 217 222 227 230 228 226 227 230 237 242 243 245 246 242 243 246 248 253 254 255 259
209 212 216 222 229 229 226 225 228 231 237 244 247 249 247 243 244 245 248 253 254 257
204 205 211 217 226 228 228 227 228 231 236 241 245 247 249 247 246 247 250 252 254 258
202 204 209 217 222 227 228 228 229 230 233 235 238 245 248 250 251 252 253 254 256 257
202 205 211 214 219 227 228 229 231 231 232 234 236 240 245 248 251 254 256 258 259 259
199 201 208 214 218 221 228 231 232 234 235 235 235 238 240 244 249 252 255 257 260 262
197 200 206 212 214 218 220 225 228 234 235 235 239 240 241 242 244 248 252 256 257 260
195 200 202 205 212 217 219 220 225 230 235 237 240 243 245 246 246 247 250 252 254 255
194 197 198 203 210 215 216 220 226 231 234 237 241 244 246 243 242 243 247 247 251 252
195 199 200 206 210 215 216 219 221 227 234 240 243 247 247 242 240 238 244 248 249 250
203 204 207 207 209 210 213 217 219 225 232 237 244 247 247 245 237 235 239 241 247 247
Height
814 819 823 828 832 835 838 842 847 850 853 857 859 861 863 865 865 866 868 870 872 873
807 812 817 822 828 831 834 839 843 847 849 853 856 858 860 862 862 864 865 867 869 871
800 805 810 817 822 827 831 836 840 842 845 848 852 855 857 858 860 861 862 864 866 867
793 799 804 809 816 822 827 831 834 838 841 844 847 849 852 854 856 857 858 860 862 863
787 792 798 803 808 816 821 825 829 833 836 839 842 844 846 849 851 852 854 855 857 858
780 785 791 797 802 808 815 819 823 827 830 833 836 839 841 843 845 847 848 851 852 853
772 777 784 790 795 801 807 812 816 819 822 826 830 833 835 837 839 841 842 844 845 847
764 771 776 783 787 793 799 803 807 812 815 819 823 826 829 831 832 834 836 837 838 839
757 764 768 774 779 785 789 794 799 803 807 810 813 817 820 824 825 827 829 830 831 832
750 756 760 767 772 777 781 786 791 795 799 801 804 807 811 815 818 820 821 821 823 824
743 749 755 761 765 770 775 778 782 787 790 793 795 798 802 806 810 811 811 812 814 816
733 741 748 753 757 763 768 772 775 780 783 784 787 791 794 799 801 802 802 804 805 807
728 733 737 743 748 754 760 763 770 773 774 776 779 782 785 789 793 795 795 796 796 799
721 725 731 738 744 748 753 758 763 766 768 770 772 774 776 780 783 785 786 788 789 790